Weather History for Togiak, AK

Change the Weather History Date:

Friday, October 28, 2011

  Actual Average Record
Temperature  
Mean Temperature 26 °F -  
Max Temperature 32 °F 33 °F 46 °F (2002)
Min Temperature 21 °F 21 °F 3 °F (1999)
Degree Days  
Heating Degree Days 38    
Moisture  
Dew Point 23 °F    
Average Humidity 88    
Maximum Humidity 100    
Minimum Humidity 80    
Precipitation  
Precipitation 0.00 in - - ()
Sea Level Pressure  
Sea Level Pressure 29.18 in    
Wind  
Wind Speed 10 mph (NNE)    
Max Wind Speed 15 mph    
Max Gust Speed 18 mph    
Visibility 10 miles    
Events      
Averages and records for this station are not official NWS values.
T = Trace of Precipitation, MM = Missing Value Source: NWS Daily Summary

Daily Weather History Graph

Daily Weather History Graph

Search for Another Location

Airport:

Trip Planner

Search our weather history database for the weather conditions in past years. The results will help you decide how hot, cold, wet, or windy it might be!

Date:

Astronomy

Oct. 28, 2011 Rise Set
Actual Time 9:50 AM AKDT 6:59 PM AKDT
Civil Twilight 9:07 AM AKDT 7:42 PM AKDT
Nautical Twilight 8:19 AM AKDT 8:30 PM AKDT
Astronomical Twilight 7:32 AM AKDT 9:16 PM AKDT
Moon 1:09 PM AKDT 7:42 PM AKDT
Length of Visible Light 10h 35m
Length of Day
9h 09m
Waxing Crescent, 6% of the Moon is Illuminated
Oct 28
Waxing Crescent
Nov 2
First Quarter
Nov 10
Full
Nov 18
Last Quarter
Nov 24
New

Hourly Weather History & Observations

Time (AKDT) Temp. Windchill Dew Point Humidity Pressure Visibility Wind Dir Wind Speed Gust Speed Precip Events Conditions
12:16 AM 21.2 °F 11.7 °F 19.4 °F 93% 29.39 in 10.0 mi NNE 8.1 mph - N/A   Mostly Cloudy
12:36 AM 21.2 °F 11.7 °F 19.4 °F 93% 29.39 in 10.0 mi NNE 8.1 mph - N/A   Mostly Cloudy
12:56 AM 23.0 °F 14.7 °F 19.4 °F 86% 29.38 in 10.0 mi North 6.9 mph - N/A   Overcast
1:16 AM 23.0 °F 13.9 °F 19.4 °F 86% 29.38 in 10.0 mi North 8.1 mph - N/A   Overcast
1:36 AM 23.0 °F 13.1 °F 19.4 °F 86% 29.37 in 10.0 mi North 9.2 mph - N/A   Overcast
1:56 AM 21.2 °F 10.9 °F 19.4 °F 93% 29.36 in 10.0 mi North 9.2 mph - N/A   Overcast
2:16 AM 21.2 °F 10.9 °F 19.4 °F 93% 29.35 in 10.0 mi North 9.2 mph - N/A   Overcast
2:36 AM 23.0 °F 12.4 °F 19.4 °F 86% 29.35 in 10.0 mi North 10.4 mph - N/A   Mostly Cloudy
2:56 AM 23.0 °F 12.4 °F 19.4 °F 86% 29.34 in 10.0 mi North 10.4 mph - N/A   Overcast
3:16 AM 23.0 °F 11.7 °F 19.4 °F 86% 29.33 in 10.0 mi North 11.5 mph - N/A   Overcast
3:36 AM 23.0 °F 11.7 °F 19.4 °F 86% 29.33 in 10.0 mi North 11.5 mph - N/A   Overcast
3:56 AM 23.0 °F 12.4 °F 19.4 °F 86% 29.32 in 10.0 mi North 10.4 mph - N/A   Mostly Cloudy
4:16 AM 23.0 °F 11.7 °F 19.4 °F 86% 29.31 in 10.0 mi North 11.5 mph - N/A   Mostly Cloudy
4:36 AM 23.0 °F 12.4 °F 19.4 °F 86% 29.30 in 10.0 mi North 10.4 mph - N/A   Scattered Clouds
4:56 AM 24.8 °F 14.0 °F 21.2 °F 86% 29.29 in 10.0 mi North 11.5 mph - N/A   Partly Cloudy
5:16 AM 24.8 °F 16.1 °F 21.2 °F 86% 29.28 in 10.0 mi North 8.1 mph - N/A   Clear
5:36 AM 24.8 °F 15.3 °F 21.2 °F 86% 29.28 in 10.0 mi North 9.2 mph - N/A   Clear
5:56 AM 24.8 °F 15.3 °F 21.2 °F 86% 29.27 in 10.0 mi North 9.2 mph - N/A   Partly Cloudy
6:16 AM 24.8 °F 16.1 °F 21.2 °F 86% 29.26 in 10.0 mi North 8.1 mph - N/A   Clear
6:36 AM 24.8 °F 16.1 °F 21.2 °F 86% 29.25 in 10.0 mi North 8.1 mph - N/A   Clear
7:16 AM 24.8 °F 16.1 °F 23.0 °F 93% 29.23 in 10.0 mi North 8.1 mph - N/A   Clear
7:36 AM 24.8 °F 15.3 °F 21.2 °F 86% 29.23 in 10.0 mi North 9.2 mph - N/A   Clear
7:56 AM 24.8 °F 14.6 °F 23.0 °F 93% 29.22 in 10.0 mi NNE 10.4 mph - N/A   Clear
8:16 AM 24.8 °F 16.9 °F 21.2 °F 86% 29.21 in 10.0 mi North 6.9 mph - N/A   Clear
8:36 AM 24.8 °F 16.1 °F 21.2 °F 86% 29.20 in 10.0 mi North 8.1 mph - N/A   Clear
8:56 AM 23.0 °F 13.9 °F 21.2 °F 93% 29.20 in 10.0 mi North 8.1 mph - N/A   Clear
9:16 AM 21.2 °F 10.9 °F 19.4 °F 93% 29.19 in 10.0 mi North 9.2 mph - N/A   Clear
9:36 AM 21.2 °F 12.6 °F 19.4 °F 93% 29.19 in 10.0 mi North 6.9 mph - N/A   Clear
9:56 AM 21.2 °F 11.7 °F 19.4 °F 93% 29.18 in 10.0 mi North 8.1 mph - N/A   Clear
10:16 AM 21.2 °F 11.7 °F 19.4 °F 93% 29.17 in 10.0 mi North 8.1 mph - N/A   Clear
10:36 AM 21.2 °F 10.9 °F 21.2 °F 100% 29.17 in 10.0 mi North 9.2 mph - N/A   Clear
10:56 AM 23.0 °F 13.1 °F 21.2 °F 93% 29.17 in 10.0 mi North 9.2 mph - N/A   Clear
11:16 AM 23.0 °F 13.1 °F 21.2 °F 93% 29.16 in 10.0 mi NNE 9.2 mph - N/A   Clear
11:36 AM 24.8 °F 16.1 °F 21.2 °F 86% 29.16 in 10.0 mi North 8.1 mph - N/A   Clear
11:56 AM 24.8 °F 16.9 °F 21.2 °F 86% 29.16 in 10.0 mi North 6.9 mph - N/A   Clear
12:16 PM 26.6 °F 18.2 °F 24.8 °F 93% 29.15 in 10.0 mi NNE 8.1 mph - N/A   Clear
12:36 PM 26.6 °F 16.8 °F 24.8 °F 93% 29.14 in 10.0 mi NNE 10.4 mph - N/A   Clear
12:56 PM 28.4 °F 19.1 °F 24.8 °F 86% 29.14 in 10.0 mi NNE 10.4 mph - N/A   Clear
1:16 PM 28.4 °F 18.5 °F 26.6 °F 93% 29.13 in 10.0 mi NNE 11.5 mph - N/A   Clear
1:36 PM 30.2 °F 19.8 °F 26.6 °F 86% 29.12 in 10.0 mi NNE 13.8 mph - N/A   Clear
2:16 PM 30.2 °F 19.3 °F 26.6 °F 86% 29.10 in 10.0 mi NNE 15.0 mph - N/A   Overcast
2:36 PM 30.2 °F 20.2 °F 26.6 °F 86% 29.10 in 10.0 mi NNE 12.7 mph - N/A   Scattered Clouds
2:56 PM 30.2 °F 20.8 °F 26.6 °F 86% 29.09 in 10.0 mi NNE 11.5 mph 17.3 mph N/A   Clear
3:16 PM 30.2 °F 19.8 °F 26.6 °F 86% 29.08 in 10.0 mi NNE 13.8 mph - N/A   Clear
3:36 PM 30.2 °F 20.2 °F 26.6 °F 86% 29.07 in 10.0 mi NNE 12.7 mph 18.4 mph N/A   Partly Cloudy
3:56 PM 30.2 °F 19.8 °F 26.6 °F 86% 29.06 in 10.0 mi NNE 13.8 mph - N/A   Partly Cloudy
4:16 PM 30.2 °F 19.8 °F 26.6 °F 86% 29.06 in 10.0 mi NNE 13.8 mph - N/A   Scattered Clouds
4:36 PM 32.0 °F 22.1 °F 26.6 °F 80% 29.05 in 10.0 mi NNE 13.8 mph - N/A   Mostly Cloudy
4:56 PM 32.0 °F 22.5 °F 26.6 °F 80% 29.05 in 10.0 mi NNE 12.7 mph - N/A   Overcast
5:16 PM 30.2 °F 19.8 °F 26.6 °F 86% 29.04 in 10.0 mi NNE 13.8 mph - N/A   Mostly Cloudy
5:36 PM 30.2 °F 20.2 °F 26.6 °F 86% 29.04 in 10.0 mi NNE 12.7 mph - N/A   Mostly Cloudy
5:56 PM 30.2 °F 21.9 °F 26.6 °F 86% 29.04 in 10.0 mi North 9.2 mph - N/A   Overcast
6:16 PM 30.2 °F 20.2 °F 26.6 °F 86% 29.03 in 10.0 mi North 12.7 mph - N/A   Overcast
6:36 PM 30.2 °F 20.8 °F 26.6 °F 86% 29.03 in 10.0 mi North 11.5 mph - N/A   Overcast
6:56 PM 30.2 °F 20.8 °F 26.6 °F 86% 29.03 in 10.0 mi North 11.5 mph - N/A   Overcast
7:16 PM 30.2 °F 20.8 °F 26.6 °F 86% 29.03 in 10.0 mi North 11.5 mph - N/A   Mostly Cloudy
7:36 PM 28.4 °F 19.1 °F 26.6 °F 93% 29.03 in 10.0 mi North 10.4 mph - N/A   Mostly Cloudy
7:56 PM 28.4 °F 18.5 °F 26.6 °F 93% 29.03 in 10.0 mi North 11.5 mph - N/A   Mostly Cloudy
8:16 PM 30.2 °F 20.8 °F 26.6 °F 86% 29.02 in 10.0 mi North 11.5 mph - N/A   Overcast
8:36 PM 30.2 °F 20.8 °F 28.4 °F 93% 29.02 in 10.0 mi North 11.5 mph - N/A   Overcast
8:56 PM 30.2 °F 20.8 °F 28.4 °F 93% 29.02 in 10.0 mi North 11.5 mph - N/A   Overcast
9:16 PM 32.0 °F 23.6 °F 28.4 °F 87% 29.03 in 10.0 mi North 10.4 mph - N/A   Overcast
9:36 PM 32.0 °F 23.0 °F 28.4 °F 87% 29.03 in 10.0 mi North 11.5 mph - N/A   Overcast
9:56 PM 32.0 °F 22.5 °F 28.4 °F 87% 29.03 in 10.0 mi North 12.7 mph - N/A   Overcast
10:16 PM 32.0 °F 23.0 °F 28.4 °F 87% 29.03 in 10.0 mi NNE 11.5 mph - N/A   Overcast
10:36 PM 33.8 °F 25.8 °F 28.4 °F 81% 29.04 in 10.0 mi North 10.4 mph - N/A   Overcast
10:56 PM 33.8 °F 25.3 °F 28.4 °F 81% 29.04 in 10.0 mi North 11.5 mph - N/A   Overcast
11:16 PM 33.8 °F 25.3 °F 28.4 °F 81% 29.04 in 10.0 mi North 11.5 mph - N/A   Overcast
11:36 PM 33.8 °F 26.4 °F 28.4 °F 81% 29.04 in 10.0 mi North 9.2 mph - N/A   Overcast
11:56 PM 33.8 °F 26.4 °F 28.4 °F 81% 29.04 in 10.0 mi NNE 9.2 mph - N/A   Overcast